ROT8PZ LRCL-LROP

Flight info

Callsign ROT8PZ
Flight time 0h 32m
Altitude 23000
Route IRLOX DCT BIVBU DCT TOSVI
Aircraft B738/M-SDE2E3FGHIRWXY/LB1

Departure

Time 2026-04-24 21:03
Airport Avram Iancu Cluj International Airport (LRCL)

Arrival

Time 2026-04-24 21:35
Airport Bucharest Henri Coandă International Airport (LROP)
Time Latitude Longitude Altitude Speed Heading
2026-04-24 20:35 46.78361 23.68817 1042 ft 0 kts 176°
2026-04-24 20:54 46.78363 23.68817 1042 ft 2 kts 176°
2026-04-24 20:55 46.78389 23.68817 1042 ft 4 kts 192°
2026-04-24 20:55 46.78412 23.68831 1042 ft 4 kts 228°
2026-04-24 20:55 46.78420 23.68853 1042 ft 0 kts 266°
2026-04-24 20:57 46.78420 23.68852 1042 ft 1 kts 266°
2026-04-24 20:57 46.78419 23.68822 1042 ft 6 kts 265°
2026-04-24 20:57 46.78415 23.68750 1042 ft 7 kts 265°
2026-04-24 20:58 46.78420 23.68678 1042 ft 7 kts 295°
2026-04-24 20:58 46.78464 23.68645 1042 ft 8 kts 348°
2026-04-24 20:58 46.78512 23.68592 1042 ft 10 kts 277°
2026-04-24 20:58 46.78502 23.68496 1042 ft 9 kts 258°
2026-04-24 20:59 46.78489 23.68403 1042 ft 9 kts 258°
2026-04-24 20:59 46.78477 23.68313 1042 ft 9 kts 263°
2026-04-24 20:59 46.78509 23.68242 1042 ft 9 kts 313°
2026-04-24 20:59 46.78510 23.68155 1042 ft 10 kts 246°
2026-04-24 21:00 46.78480 23.68037 1042 ft 15 kts 251°
2026-04-24 21:00 46.78447 23.67890 1042 ft 15 kts 251°
2026-04-24 21:00 46.78415 23.67748 1042 ft 14 kts 252°
2026-04-24 21:00 46.78385 23.67613 1042 ft 14 kts 253°
2026-04-24 21:01 46.78360 23.67483 1042 ft 13 kts 259°
2026-04-24 21:01 46.78342 23.67354 1042 ft 13 kts 259°
2026-04-24 21:01 46.78370 23.67238 1042 ft 12 kts 311°
2026-04-24 21:01 46.78443 23.67177 1041 ft 12 kts 345°
2026-04-24 21:02 46.78463 23.67179 1042 ft 1 kts 39°
2026-04-24 21:02 46.78485 23.67257 1042 ft 30 kts 71°
2026-04-24 21:02 46.78638 23.67934 1042 ft 109 kts 71°
2026-04-24 21:02 46.78955 23.69304 1088 ft 169 kts 71°
2026-04-24 21:03 46.79323 23.70950 1976 ft 160 kts 72°
2026-04-24 21:03 46.79660 23.72493 2928 ft 166 kts 70°
2026-04-24 21:03 46.80045 23.74239 3446 ft 197 kts 70°
2026-04-24 21:03 46.80496 23.76270 3737 ft 229 kts 70°
2026-04-24 21:04 46.80958 23.78664 3988 ft 262 kts 83°
2026-04-24 21:04 46.80555 23.81301 4735 ft 277 kts 122°
2026-04-24 21:04 46.79153 23.83198 5721 ft 278 kts 153°
2026-04-24 21:04 46.77386 23.84408 6658 ft 285 kts 157°
2026-04-24 21:05 46.75543 23.85581 7556 ft 289 kts 158°
2026-04-24 21:05 46.73703 23.86747 8635 ft 289 kts 158°
2026-04-24 21:05 46.71850 23.87935 9601 ft 294 kts 157°
2026-04-24 21:05 46.69968 23.89157 10435 ft 301 kts 157°
2026-04-24 21:06 46.67974 23.90467 10734 ft 328 kts 156°
2026-04-24 21:06 46.65836 23.91983 10989 ft 354 kts 151°
2026-04-24 21:06 46.63697 23.93890 11601 ft 365 kts 147°
2026-04-24 21:06 46.61562 23.95940 12390 ft 370 kts 146°
2026-04-24 21:07 46.59408 23.98043 13195 ft 375 kts 145°
2026-04-24 21:07 46.57223 24.00167 13954 ft 381 kts 145°
2026-04-24 21:07 46.55018 24.02292 14633 ft 387 kts 146°
2026-04-24 21:07 46.52752 24.04455 15326 ft 392 kts 146°
2026-04-24 21:08 46.50420 24.06662 16030 ft 398 kts 146°
2026-04-24 21:08 46.48104 24.08843 16646 ft 405 kts 146°
2026-04-24 21:08 46.45728 24.11073 17375 ft 408 kts 146°
2026-04-24 21:08 46.43324 24.13321 18061 ft 413 kts 146°
2026-04-24 21:09 46.40892 24.15593 18661 ft 419 kts 146°
2026-04-24 21:09 46.38426 24.17893 19259 ft 423 kts 146°
2026-04-24 21:09 46.35943 24.20207 19861 ft 426 kts 146°
2026-04-24 21:09 46.33430 24.22545 20476 ft 430 kts 146°
2026-04-24 21:10 46.30898 24.24899 21056 ft 434 kts 146°
2026-04-24 21:10 46.28375 24.27241 21620 ft 438 kts 146°
2026-04-24 21:10 46.25793 24.29637 22191 ft 442 kts 146°
2026-04-24 21:10 46.23181 24.32058 22742 ft 447 kts 146°
2026-04-24 21:11 46.20544 24.34498 23048 ft 454 kts 146°
2026-04-24 21:11 46.17853 24.36987 23039 ft 464 kts 146°
2026-04-24 21:11 46.15128 24.39504 23045 ft 466 kts 146°
2026-04-24 21:11 46.12394 24.42024 23034 ft 464 kts 146°
2026-04-24 21:12 46.09669 24.44534 23036 ft 463 kts 146°
2026-04-24 21:12 46.07872 24.46187 23037 ft 463 kts 146°
2026-04-24 21:12 46.04275 24.49492 23043 ft 463 kts 146°
2026-04-24 21:12 46.01563 24.51981 23041 ft 463 kts 146°
2026-04-24 21:13 45.98847 24.54471 23040 ft 463 kts 146°
2026-04-24 21:13 45.96131 24.56958 23036 ft 463 kts 146°
2026-04-24 21:13 45.93417 24.59442 23032 ft 463 kts 146°
2026-04-24 21:13 45.90690 24.61933 23033 ft 462 kts 146°
2026-04-24 21:14 45.87983 24.64403 23041 ft 462 kts 146°
2026-04-24 21:14 45.85265 24.66880 23044 ft 462 kts 146°
2026-04-24 21:14 45.82557 24.69346 23043 ft 462 kts 146°
2026-04-24 21:14 45.79839 24.71817 23038 ft 461 kts 146°
2026-04-24 21:15 45.77125 24.74282 23054 ft 461 kts 146°
2026-04-24 21:15 45.74413 24.76743 23053 ft 461 kts 146°
2026-04-24 21:15 45.71734 24.79171 23050 ft 462 kts 146°
2026-04-24 21:15 45.69026 24.81622 23049 ft 462 kts 146°
2026-04-24 21:16 45.66314 24.84073 23030 ft 454 kts 146°
2026-04-24 21:16 45.63676 24.86454 22654 ft 444 kts 146°
2026-04-24 21:16 45.61087 24.88788 22188 ft 438 kts 146°
2026-04-24 21:16 45.58518 24.91103 21687 ft 432 kts 147°
2026-04-24 21:17 45.55986 24.93381 21169 ft 428 kts 146°
2026-04-24 21:17 45.53479 24.95635 20644 ft 424 kts 146°
2026-04-24 21:17 45.50996 24.97865 20128 ft 420 kts 146°
2026-04-24 21:17 45.49361 24.99333 19796 ft 418 kts 146°
2026-04-24 21:18 45.46085 25.02270 19102 ft 414 kts 146°
2026-04-24 21:18 45.43657 25.04444 18609 ft 410 kts 147°
2026-04-24 21:18 45.41244 25.06603 18051 ft 408 kts 147°
2026-04-24 21:18 45.38875 25.08720 17491 ft 405 kts 147°
2026-04-24 21:19 45.36499 25.10841 16970 ft 401 kts 147°
2026-04-24 21:19 45.34143 25.12942 16471 ft 397 kts 147°
2026-04-24 21:19 45.31810 25.15020 15991 ft 394 kts 147°
2026-04-24 21:19 45.29503 25.17073 15496 ft 390 kts 147°
2026-04-24 21:20 45.24950 25.21119 14511 ft 383 kts 147°
2026-04-24 21:20 45.22700 25.23117 14044 ft 380 kts 147°
2026-04-24 21:20 45.20460 25.25103 13521 ft 378 kts 147°
2026-04-24 21:21 45.18242 25.27068 12994 ft 375 kts 148°
2026-04-24 21:21 45.16037 25.29019 12490 ft 371 kts 148°
2026-04-24 21:21 45.13857 25.30946 12009 ft 368 kts 148°
2026-04-24 21:21 45.11695 25.32857 11529 ft 364 kts 148°
2026-04-24 21:22 45.09560 25.34741 11055 ft 360 kts 148°
2026-04-24 21:22 45.07447 25.36604 10750 ft 352 kts 149°
2026-04-24 21:22 45.05400 25.38408 10603 ft 340 kts 149°
2026-04-24 21:22 45.04088 25.39564 10505 ft 333 kts 149°
2026-04-24 21:23 45.01532 25.41813 10316 ft 320 kts 149°
2026-04-24 21:23 44.99670 25.43450 10175 ft 310 kts 149°
2026-04-24 21:23 44.97838 25.45058 10039 ft 301 kts 149°
2026-04-24 21:23 44.96076 25.46605 9785 ft 297 kts 149°
2026-04-24 21:24 44.94324 25.48140 9475 ft 295 kts 149°
2026-04-24 21:24 44.92609 25.49642 9176 ft 293 kts 149°
2026-04-24 21:24 44.90885 25.51150 8876 ft 290 kts 149°
2026-04-24 21:24 44.89177 25.52645 8581 ft 288 kts 149°
2026-04-24 21:25 44.87484 25.54125 8276 ft 285 kts 149°
2026-04-24 21:25 44.85798 25.55598 8001 ft 283 kts 149°
2026-04-24 21:25 44.84130 25.57055 7699 ft 282 kts 149°
2026-04-24 21:25 44.82470 25.58503 7411 ft 280 kts 149°
2026-04-24 21:26 44.80818 25.59943 7114 ft 278 kts 149°
2026-04-24 21:26 44.79175 25.61376 6830 ft 277 kts 149°
2026-04-24 21:26 44.77539 25.62800 6540 ft 275 kts 149°
2026-04-24 21:26 44.75915 25.64214 6253 ft 274 kts 149°
2026-04-24 21:27 44.74298 25.65619 5949 ft 272 kts 149°
2026-04-24 21:27 44.72692 25.67014 5660 ft 270 kts 149°
2026-04-24 21:27 44.71103 25.68394 5373 ft 268 kts 149°
2026-04-24 21:27 44.70051 25.69307 5200 ft 266 kts 149°
2026-04-24 21:28 44.67956 25.71125 4838 ft 264 kts 149°
2026-04-24 21:28 44.66409 25.72466 4666 ft 257 kts 148°
2026-04-24 21:28 44.64911 25.73763 4556 ft 249 kts 148°
2026-04-24 21:28 44.63460 25.75020 4439 ft 241 kts 148°
2026-04-24 21:29 44.62060 25.76232 4340 ft 233 kts 148°
2026-04-24 21:29 44.60703 25.77407 4247 ft 225 kts 148°
2026-04-24 21:29 44.59406 25.78527 4124 ft 219 kts 148°
2026-04-24 21:29 44.58124 25.79635 3944 ft 212 kts 149°
2026-04-24 21:30 44.56882 25.80706 3704 ft 206 kts 148°
2026-04-24 21:30 44.55686 25.81744 3499 ft 198 kts 146°
2026-04-24 21:30 44.54844 25.83155 3360 ft 187 kts 105°
2026-04-24 21:30 44.54839 25.84953 3207 ft 185 kts 85°
2026-04-24 21:31 44.54934 25.86746 2976 ft 183 kts 85°
2026-04-24 21:31 44.55046 25.88488 2764 ft 174 kts 85°
2026-04-24 21:31 44.55163 25.90123 2547 ft 162 kts 84°
2026-04-24 21:31 44.55272 25.91616 2403 ft 145 kts 84°
2026-04-24 21:32 44.55373 25.92993 2200 ft 139 kts 83°
2026-04-24 21:32 44.55472 25.94332 2035 ft 138 kts 78°
2026-04-24 21:32 44.55571 25.95685 1876 ft 140 kts 78°
2026-04-24 21:32 44.55671 25.97021 1708 ft 139 kts 78°
2026-04-24 21:33 44.55771 25.98362 1529 ft 139 kts 78°
2026-04-24 21:33 44.55840 25.99274 1425 ft 140 kts 79°
2026-04-24 21:33 44.55972 26.01077 1209 ft 140 kts 81°
2026-04-24 21:33 44.56077 26.02446 1017 ft 142 kts 82°
2026-04-24 21:34 44.56182 26.03821 853 ft 140 kts 83°
2026-04-24 21:34 44.56280 26.05193 676 ft 143 kts 83°
2026-04-24 21:34 44.56345 26.06140 570 ft 145 kts 84°
2026-04-24 21:34 44.56453 26.07521 394 ft 144 kts 84°
2026-04-24 21:35 44.56556 26.08861 317 ft 125 kts 82°
2026-04-24 21:35 44.56633 26.09869 316 ft 83 kts 83°
2026-04-24 21:35 44.56678 26.10466 316 ft 42 kts 84°
2026-04-24 21:35 44.56700 26.10721 314 ft 11 kts 71°
2026-04-24 21:36 44.56755 26.10770 315 ft 10 kts 352°
2026-04-24 21:36 44.56825 26.10750 315 ft 10 kts 352°
2026-04-24 21:36 44.56900 26.10740 313 ft 11 kts 355°
2026-04-24 21:36 44.56976 26.10722 313 ft 11 kts 336°
2026-04-24 21:37 44.57030 26.10652 312 ft 11 kts 300°
2026-04-24 21:37 44.57065 26.10551 309 ft 12 kts 284°
2026-04-24 21:37 44.57064 26.10438 310 ft 12 kts 263°
2026-04-24 21:37 44.57055 26.10327 311 ft 11 kts 264°
2026-04-24 21:38 44.57047 26.10221 311 ft 11 kts 264°
2026-04-24 21:38 44.57040 26.10116 310 ft 11 kts 264°
2026-04-24 21:38 44.57031 26.10003 311 ft 13 kts 263°
2026-04-24 21:38 44.57018 26.09843 313 ft 18 kts 264°
2026-04-24 21:39 44.57004 26.09667 314 ft 18 kts 264°
2026-04-24 21:39 44.56991 26.09497 316 ft 17 kts 264°
2026-04-24 21:39 44.56979 26.09333 316 ft 17 kts 264°
2026-04-24 21:39 44.56967 26.09176 317 ft 16 kts 264°
2026-04-24 21:40 44.56955 26.09024 318 ft 15 kts 264°
2026-04-24 21:40 44.56944 26.08879 316 ft 15 kts 264°
2026-04-24 21:40 44.56933 26.08737 314 ft 14 kts 264°
2026-04-24 21:40 44.56927 26.08655 316 ft 4 kts 264°
2026-04-24 21:41 44.56924 26.08613 316 ft 4 kts 262°
2026-04-24 21:41 44.56912 26.08562 289 ft 8 kts 250°
2026-04-24 21:41 44.56897 26.08478 317 ft 10 kts 264°
2026-04-24 21:41 44.56926 26.08397 315 ft 10 kts 316°
2026-04-24 21:42 44.56951 26.08308 315 ft 11 kts 264°
2026-04-24 21:42 44.56946 26.08226 315 ft 6 kts 265°
2026-04-24 21:42 44.56950 26.08212 314 ft 2 kts 299°
2026-04-24 21:42 44.56978 26.08200 316 ft 7 kts 356°
2026-04-24 21:43 44.57027 26.08194 314 ft 0 kts 354°